SkySat C4

operational
NORAD ID: 41771 Int'l Des: 2016-058 Owner: TBELLA Country: US
LEOCIRCULARRETROGRADESSO

Über SkySat C4

Beschreibung wird geladen...

Live-Position

3D-Globus wird geladen...

Nächste Überflüge

Höhenverlauf

Altitude vs Time

uPlot chart will show altitude changes over time

Zweizeiliger Elementsatz

1 41771U 16058B 26062.05010730 .00019171 00000-0 40663-3 0 9993
2 41771 96.9290 88.4551 0000910 78.4840 281.6512 15.45093504529062
Epoch: 3. März 2026 • Age: 36 hours

Aktueller Status

Höhe 436.3 km
Geschwindigkeit 7.65 km/s
Subsatellitenpunkt 38.76°N, 66.94°W
Startdatum 16. Sept. 2016
Alter 9.4 years
Typ earth observation

Technische Details

Klassifizierung Payload
Masse 110.00 kg
Trockenmasse 110.00 kg
Gesamtmasse 110.00 kg
Länge 1.20 m
Durchmesser 0.50 m
Spannweite 0.50 m
Form Box
Hersteller SSL
Bus-Typ SkySat-Gen2
Phasenstatus In Orbit
Besitzer/Staat TBELLA/US

Große Konstellationen

Loading constellations...